SHIJIAN-21 (SJ-21)

Last updated on Thu Nov 21 2024 00:02:44 GMT+0000 (Coordinated Universal Time)

1 49330U 21094A 24325.67094887 -.00000212 00000+0 00000+0 0 9994 2 49330 10.1065 44.1023 0076402 36.8483 10.6449 1.00272644 11506
UTC large
Height (km)
Speed (km/s)
/
Latitude / Longitude
Inclination (degrees)
Orbital Period (minutes)
Azimuth
Elevation
Range (km)
Doppler Factor

Next 0 passes for location: London (51.5072 / 0.1276)

Sorry there are no passes over London.